Malmö Sturup Airport

Jump to: basic info | weather | frequencies | runways | comments

Related pages: nearby airports | nearby navaids | notams | map

Basic information (top)

Codes: MMX ESMS
Location: lon 55.536305, lat 13.376198, elev 236 ft / 72 m msl
Status: large_airport
Scheduled airline service: yes
Links: Wikipedia Mobile

Weather (top)

Current conditions (rec'd 2014/09/21 09:50Z):

ESMS 210950Z 31005KT 7000 BR BKN007 OVC200 15/14 Q1009

Airport forecast (rec'd 2014/09/21 06:36Z):

TAF ESMS 210530Z 2106/2206 19005KT 3000 BR BKN015 
      TEMPO 2106/2108 0200 BCFG VV001 
      TEMPO 2108/2111 6000 SHRA BKN015CB 
      BECMG 2112/2114 29013KT 9999 NSW 
      TEMPO 2118/2206 -SHRA SCT010 SCT020TCU

Frequencies (top)

Verify before use: may be inaccurate or out of date.

APP: 135.9 MHz (MALMO CON)
ATIS: 129.275 MHz (ATIS)
TWR: 118.8 MHz (TWR)

Runways (top)

11/29: 2,615 x 75 ft (797 x 23 m) — paved — not lighted

17/35: 9,186 x 148 ft (2,800 x 45 m) — paved — lighted

Latest comments (top)

ESMS Malmö Airport NDBs withdrawn: The two NDBs at Malmö Airport (NS and ... [read]

More... (top)

See also NOTAMs and nearby airports and navaids, or visit the Malmö Sturup Airport page at the main OurAirports website..